Location: Zagreb
(45.8000°N, 16.0000°E)
Time: 02:58:13
(UTC+01:00)

S-56A Canister/Altair - Pass Details

Date: 11 October 2020
Orbit: 633 x 2499 km, 38.9° (Epoch: 25 October)

Event Time Altitude Azimuth Distance (km) Brightness Sun altitude
Rises 18:27:31 0° 283° (WNW) 6,156 13.7 -2.7°
Reaches altitude 10° 18:32:37 10° 272° (W) 5,165 13.6 -3.6°
Maximum altitude 18:43:15 24° 227° (SW) 3,895 11.8 -5.4°
Drops below altitude 10° 18:52:41 10° 180° (S) 4,507 11.5 -7.0°
Sets 18:56:47 0° 167° (SSE) 5,233 11.7 -7.8°
